FW4111 Weather Reports


time (UTC)temp
C
wind
direction
speed
KPH
gust
KPH
rain 1hr
cm
rain 24hr
cm
rain mn
cm
humidity
%
barometer
mb
20260505121601 14 227 16.1 27.4 0.00 0.00 0.00 93 1011.4
20260505120111 14 225 17.7 27.4 0.00 0.00 0.00 94 1011.3
20260505114535 13 219 20.9 30.6 0.00 0.00 0.00 95 1011.2
20260505113041 14 219 12.9 24.1 0.00 0.00 0.00 94 1011.2
20260505111541 13 224 20.9 30.6 0.00 0.00 0.00 95 1011.1
20260505101529 -17 0.0 0.0 0.00 0.00 0.00 1010.5
20260505100002 -17 219 8.0 19.3 0.00 0.00 0.00 1010.6
20260505094607 13 218 14.5 22.5 0.00 0.00 0.00 95 1010.5
20260505093059 14 238 19.3 27.4 0.00 0.00 0.00 94 1010.4
20260505091611 14 222 16.1 24.1 0.00 0.00 0.00 94 1010.5
20260505090059 14 227 19.3 25.7 0.00 0.00 0.00 94 1010.5
20260505084537 13 238 20.9 25.7 0.00 0.00 0.00 95 1010.4
20260505083040 13 222 20.9 27.4 0.00 0.00 0.00 96 1010.4
20260505081533 13 218 19.3 25.7 0.00 0.00 0.00 96 1010.4
20260505080019 13 233 20.9 37.0 0.00 0.00 0.00 96 1010.3
20260505074506 13 226 20.9 29.0 0.00 0.00 0.00 96 1010.3
20260505073006 13 221 24.1 30.6 0.00 0.00 0.00 96 1010.3
20260505071504 13 240 25.7 32.2 0.00 0.00 0.00 95 1010.3
20260505070107 13 236 24.1 29.0 0.00 0.00 0.00 95 1010.2
20260505064552 13 248 22.5 32.2 0.00 0.00 0.00 96 1010.2
20260505063042 13 231 25.7 33.8 0.00 0.00 0.00 96 1010.3
20260505061553 13 229 22.5 33.8 0.00 0.00 0.00 96 1010.4
20260505060017 13 204 29.0 45.1 0.00 0.00 0.00 95 1010.5
20260505054509 13 231 35.4 46.7 0.00 0.00 0.00 95 1010.5
20260505053014 13 221 29.0 48.3 0.00 0.00 0.00 95 1010.4
20260505051508 13 243 29.0 43.5 0.00 0.00 0.00 94 1010.6
20260505041533 13 207 19.3 33.8 0.00 0.00 0.00 95 1011.0
20260505040019 13 262 19.3 35.4 0.00 0.00 0.00 95 1011.0
20260505034509 13 28 19.3 32.2 0.00 0.00 0.00 95 1011.0
20260505033012 13 215 24.1 41.8 0.00 0.00 0.00 94 1011.1
20260505031503 13 229 24.1 38.6 0.00 0.00 0.00 94 1011.3
20260505030105 13 240 22.5 41.8 0.00 0.00 0.00 93 1011.2
20260505024545 13 224 22.5 38.6 0.00 0.00 0.00 92 1011.3
20260505023043 14 203 14.5 30.6 0.00 0.00 0.00 90 1011.4
20260505021541 15 243 29.0 43.5 0.00 0.00 0.00 87 1011.4
20260505020027 15 230 24.1 35.4 0.00 0.00 0.00 87 1011.5
20260505014517 15 280 20.9 38.6 0.00 0.00 0.00 87 1011.5
20260505013015 15 210 22.5 35.4 0.00 0.00 0.00 86 1011.4
20260505011512 15 234 30.6 37.0 0.00 0.00 0.00 87 1011.2
20260505010114 15 182 22.5 37.0 0.00 0.00 0.00 88 1011.2
20260505004552 15 237 27.4 37.0 0.00 0.00 0.00 89 1011.0
20260505003045 14 237 20.9 33.8 0.00 0.00 0.00 91 1010.8
20260505001545 13 215 22.5 35.4 0.00 0.00 0.00 91 1010.7
20260505000049 13 226 16.1 32.2 0.00 0.00 0.00 92 1010.5
20260504234522 13 223 17.7 35.4 0.00 0.00 0.00 91 1010.5
20260504233018 13 248 22.5 37.0 0.00 0.00 0.00 90 1010.4
20260504231514 14 205 25.7 43.5 0.00 0.00 0.00 89 1010.3
20260504230116 14 230 25.7 48.3 0.00 0.00 0.00 90 1010.2
20260504224556 15 210 30.6 45.1 0.00 0.00 0.00 88 1010.3
20260504223054 15 230 33.8 46.7 0.00 0.00 0.00 87 1010.2
20260504221551 15 232 38.6 48.3 0.00 0.00 0.00 85 1010.1
20260504220057 15 228 29.0 43.5 0.00 0.00 0.00 86 1010.1
20260504214534 15 241 37.0 48.3 0.00 0.00 0.00 86 1010.3
20260504213029 15 224 27.4 45.1 0.00 0.00 0.00 85 1010.3
20260504211535 15 265 29.0 45.1 0.00 0.00 0.00 86 1010.3
20260504210005 14 188 35.4 48.3 0.00 0.00 0.00 87 1010.2
20260504204503 14 225 27.4 49.9 0.00 0.00 0.00 86 1010.2
20260504203002 15 239 22.5 40.2 0.00 0.00 0.00 85 1010.2
20260504201603 15 229 24.1 43.5 0.00 0.00 0.00 84 1010.2
20260504200100 15 190 19.3 38.6 0.00 0.00 0.00 83 1010.2
20260504194540 15 242 19.3 37.0 0.00 0.00 0.00 81 1010.4
20260504193043 16 219 20.9 38.6 0.00 0.00 0.00 79 1010.5
20260504191532 16 236 16.1 38.6 0.00 0.00 0.00 80 1010.7
20260504190012 16 128 17.7 41.8 0.00 0.00 0.00 82 1011.0
20260504184507 16 250 19.3 32.2 0.00 0.00 0.00 80 1011.0
20260504183003 15 183 20.9 38.6 0.00 0.00 0.00 83 1011.2
20260504181604 15 241 17.7 37.0 0.00 0.00 0.00 81 1011.3
20260504180141 15 241 19.3 35.4 0.00 0.00 0.00 80 1011.4
20260504174540 16 189 17.7 38.6 0.00 0.00 0.00 81 1011.6
20260504173039 16 231 16.1 35.4 0.00 0.00 0.00 78 1011.7
20260504171536 16 249 19.3 37.0 0.00 0.00 0.00 79 1012.1
20260504160107 16 174 17.7 32.2 0.00 0.00 0.00 76 1012.7
20260504140111 15 219 14.5 33.8 0.00 0.00 0.00 75 1013.5